Time,TemperatureF,DewpointF,PressureIn,WindDirection,WindDirectionDegrees,WindSpeedMPH,WindSpeedGustMPH,Humidity,HourlyPrecipIn,Conditions,Clouds,dailyrainin,SolarRadiationWatts/m^2,SoftwareType,DateUTC
2013-01-03 00:04:00,21.5,17.0,30.00,SW,232,0.0,3.0,83,0.00,,,0.00,0,weatherlink.com 1.10,2013-01-03 05:04:00,
2013-01-03 00:19:00,21.4,17.0,30.00,SW,232,0.0,2.0,84,0.00,,,0.00,0,weatherlink.com 1.10,2013-01-03 05:19:00,
2013-01-03 00:34:00,21.3,17.0,29.99,SW,232,0.0,2.0,84,0.00,,,0.00,0,weatherlink.com 1.10,2013-01-03 05:34:00,
2013-01-03 00:49:00,21.2,17.0,29.99,SW,232,0.0,0.0,85,0.00,,,0.00,0,weatherlink.com 1.10,2013-01-03 05:49:00,
2013-01-03 01:04:00,21.0,17.0,29.98,SW,232,0.0,0.0,85,0.00,,,0.00,0,weatherlink.com 1.10,2013-01-03 06:04:00,
2013-01-03 01:19:00,20.6,17.0,29.98,SW,232,0.0,1.0,85,0.00,,,0.00,0,weatherlink.com 1.10,2013-01-03 06:19:00,
2013-01-03 01:34:00,20.0,17.0,29.97,SW,232,0.0,0.0,86,0.00,,,0.00,0,weatherlink.com 1.10,2013-01-03 06:34:00,
2013-01-03 01:49:00,19.6,16.0,29.97,SW,232,0.0,0.0,87,0.00,,,0.00,0,weatherlink.com 1.10,2013-01-03 06:49:00,
2013-01-03 02:04:00,19.1,16.0,29.95,SW,229,0.0,3.0,88,0.00,,,0.00,0,weatherlink.com 1.10,2013-01-03 07:04:00,
2013-01-03 02:19:00,19.3,16.0,29.96,SW,229,0.0,0.0,88,0.00,,,0.00,0,weatherlink.com 1.10,2013-01-03 07:19:00,
2013-01-03 02:34:00,19.1,16.0,29.96,SW,229,0.0,0.0,88,0.00,,,0.00,0,weatherlink.com 1.10,2013-01-03 07:34:00,
2013-01-03 02:49:00,18.5,15.0,29.95,SW,229,0.0,2.0,87,0.00,,,0.00,0,weatherlink.com 1.10,2013-01-03 07:49:00,
2013-01-03 03:04:00,18.1,15.0,29.95,SSE,167,1.0,4.0,89,0.00,,,0.00,0,weatherlink.com 1.10,2013-01-03 08:04:00,
2013-01-03 03:19:00,18.5,16.0,29.95,South,182,1.0,4.0,89,0.00,,,0.00,0,weatherlink.com 1.10,2013-01-03 08:19:00,
2013-01-03 03:34:00,19.2,16.0,29.95,South,182,0.0,1.0,88,0.00,,,0.00,0,weatherlink.com 1.10,2013-01-03 08:34:00,
2013-01-03 03:49:00,19.6,16.0,29.95,South,182,0.0,0.0,87,0.00,,,0.00,0,weatherlink.com 1.10,2013-01-03 08:49:00,
2013-01-03 04:04:00,20.0,17.0,29.94,South,182,0.0,1.0,87,0.00,,,0.00,0,weatherlink.com 1.10,2013-01-03 09:04:00,
2013-01-03 04:19:00,20.4,17.0,29.94,South,182,0.0,0.0,87,0.00,,,0.00,0,weatherlink.com 1.10,2013-01-03 09:19:00,
2013-01-03 04:34:00,20.7,17.0,29.94,South,182,0.0,1.0,87,0.00,,,0.00,0,weatherlink.com 1.10,2013-01-03 09:34:00,
2013-01-03 04:49:00,21.3,18.0,29.94,South,182,0.0,2.0,86,0.00,,,0.00,0,weatherlink.com 1.10,2013-01-03 09:49:00,
2013-01-03 05:04:00,21.8,18.0,29.93,South,182,0.0,2.0,86,0.00,,,0.00,0,weatherlink.com 1.10,2013-01-03 10:04:00,
2013-01-03 05:19:00,22.4,18.0,29.93,South,182,2.0,3.0,84,0.00,,,0.00,0,weatherlink.com 1.10,2013-01-03 10:19:00,
2013-01-03 05:34:00,22.7,19.0,29.93,South,182,0.0,2.0,84,0.00,,,0.00,0,weatherlink.com 1.10,2013-01-03 10:34:00,
2013-01-03 05:49:00,22.8,19.0,29.93,South,182,0.0,2.0,84,0.00,,,0.00,0,weatherlink.com 1.10,2013-01-03 10:49:00,
2013-01-03 06:04:00,23.0,19.0,29.93,South,182,0.0,1.0,84,0.00,,,0.00,0,weatherlink.com 1.10,2013-01-03 11:04:00,
2013-01-03 06:19:00,23.4,19.0,29.93,South,186,0.0,4.0,84,0.00,,,0.00,0,weatherlink.com 1.10,2013-01-03 11:19:00,
2013-01-03 06:34:00,23.9,20.0,29.94,WNW,299,1.0,4.0,84,0.00,,,0.00,0,weatherlink.com 1.10,2013-01-03 11:34:00,
2013-01-03 06:49:00,24.2,20.0,29.94,NW,312,2.0,5.0,85,0.00,,,0.00,0,weatherlink.com 1.10,2013-01-03 11:49:00,
2013-01-03 07:04:00,24.5,21.0,29.94,NW,311,1.0,3.0,85,0.00,,,0.00,0,weatherlink.com 1.10,2013-01-03 12:04:00,
2013-01-03 07:19:00,24.8,21.0,29.95,WNW,298,2.0,4.0,85,0.00,,,0.00,0,weatherlink.com 1.10,2013-01-03 12:19:00,
2013-01-03 07:34:00,24.8,21.0,29.95,WNW,298,2.0,3.0,86,0.00,,,0.00,0,weatherlink.com 1.10,2013-01-03 12:34:00,
2013-01-03 07:49:00,24.8,21.0,29.95,WNW,298,0.0,3.0,86,0.00,,,0.00,0,weatherlink.com 1.10,2013-01-03 12:49:00,
2013-01-03 08:04:00,24.8,21.0,29.95,WNW,298,0.0,2.0,86,0.00,,,0.00,0,weatherlink.com 1.10,2013-01-03 13:04:00,
2013-01-03 08:19:00,24.8,21.0,29.95,WNW,298,0.0,0.0,86,0.00,,,0.00,0,weatherlink.com 1.10,2013-01-03 13:19:00,
2013-01-03 08:34:00,24.9,22.0,29.95,WNW,298,0.0,2.0,87,0.00,,,0.00,0,weatherlink.com 1.10,2013-01-03 13:34:00,
2013-01-03 08:49:00,25.1,22.0,29.96,WNW,298,0.0,1.0,87,0.00,,,0.00,0,weatherlink.com 1.10,2013-01-03 13:49:00,
2013-01-03 09:04:00,25.6,22.0,29.96,WNW,298,1.0,3.0,87,0.00,,,0.00,7,weatherlink.com 1.10,2013-01-03 14:04:00,
2013-01-03 09:20:00,26.1,22.0,29.96,WNW,298,0.0,3.0,85,0.00,,,0.00,16,weatherlink.com 1.10,2013-01-03 14:20:00,
2013-01-03 09:35:00,26.4,22.0,29.96,WNW,300,3.0,4.0,83,0.00,,,0.00,11,weatherlink.com 1.10,2013-01-03 14:35:00,
2013-01-03 09:50:00,26.7,22.0,29.97,NW,312,1.0,3.0,82,0.00,,,0.00,18,weatherlink.com 1.10,2013-01-03 14:50:00,
2013-01-03 10:05:00,26.9,22.0,29.98,NW,312,1.0,4.0,82,0.00,,,0.00,14,weatherlink.com 1.10,2013-01-03 15:05:00,
2013-01-03 10:20:00,26.9,22.0,29.98,NW,312,1.0,4.0,82,0.00,,,0.00,21,weatherlink.com 1.10,2013-01-03 15:20:00,
2013-01-03 10:35:00,26.9,22.0,29.99,NW,319,1.0,5.0,83,0.00,,,0.00,30,weatherlink.com 1.10,2013-01-03 15:35:00,
2013-01-03 10:50:00,27.0,22.0,29.99,NW,319,0.0,3.0,82,0.00,,,0.00,30,weatherlink.com 1.10,2013-01-03 15:50:00,
2013-01-03 11:05:00,27.0,22.0,30.00,NW,319,1.0,3.0,81,0.00,,,0.00,32,weatherlink.com 1.10,2013-01-03 16:05:00,
2013-01-03 11:20:00,27.1,21.0,30.00,NW,305,1.0,5.0,79,0.00,,,0.00,32,weatherlink.com 1.10,2013-01-03 16:20:00,
2013-01-03 11:35:00,26.9,21.0,30.00,NW,317,2.0,5.0,78,0.00,,,0.00,37,weatherlink.com 1.10,2013-01-03 16:35:00,
2013-01-03 11:50:00,26.8,21.0,30.00,NW,304,3.0,5.0,78,0.00,,,0.00,65,weatherlink.com 1.10,2013-01-03 16:50:00,
2013-01-03 12:05:00,26.9,21.0,30.00,NW,313,2.0,4.0,77,0.00,,,0.00,79,weatherlink.com 1.10,2013-01-03 17:05:00,
2013-01-03 12:20:00,26.8,19.0,30.00,WNW,294,3.0,5.0,73,0.00,,,0.00,139,weatherlink.com 1.10,2013-01-03 17:20:00,
2013-01-03 12:35:00,27.3,20.0,30.00,NW,305,1.0,3.0,74,0.00,,,0.00,178,weatherlink.com 1.10,2013-01-03 17:35:00,
2013-01-03 12:50:00,27.4,19.0,30.00,WNW,300,2.0,5.0,72,0.00,,,0.00,271,weatherlink.com 1.10,2013-01-03 17:50:00,
2013-01-03 13:05:00,27.0,18.0,29.99,NW,321,0.0,5.0,70,0.00,,,0.00,178,weatherlink.com 1.10,2013-01-03 18:05:00,
2013-01-03 13:20:00,26.9,18.0,29.99,NNW,327,1.0,6.0,70,0.00,,,0.00,130,weatherlink.com 1.10,2013-01-03 18:20:00,
2013-01-03 13:35:00,27.0,18.0,29.99,NW,323,2.0,5.0,70,0.00,,,0.00,200,weatherlink.com 1.10,2013-01-03 18:35:00,
2013-01-03 13:50:00,27.1,18.0,29.98,NW,318,2.0,6.0,69,0.00,,,0.00,77,weatherlink.com 1.10,2013-01-03 18:50:00,
2013-01-03 14:05:00,27.0,18.0,29.98,NW,311,1.0,6.0,68,0.00,,,0.00,199,weatherlink.com 1.10,2013-01-03 19:05:00,
2013-01-03 15:05:00,26.7,18.0,29.98,NW,309,1.0,4.0,70,0.00,,,0.00,42,weatherlink.com 1.10,2013-01-03 20:05:00,
2013-01-03 15:20:00,26.7,17.0,29.98,NW,313,1.0,5.0,68,0.00,,,0.00,42,weatherlink.com 1.10,2013-01-03 20:20:00,
2013-01-03 15:38:00,26.7,17.0,29.98,NW,319,2.0,5.0,67,0.00,,,0.00,28,weatherlink.com 1.10,2013-01-03 20:38:00,
2013-01-03 15:50:00,26.8,18.0,29.98,WSW,255,3.0,5.0,68,0.00,,,0.00,25,weatherlink.com 1.10,2013-01-03 20:50:00,
2013-01-03 16:05:00,26.6,17.0,29.98,NW,311,1.0,5.0,68,0.00,,,0.00,21,weatherlink.com 1.10,2013-01-03 21:05:00,
2013-01-03 16:20:00,26.5,18.0,29.98,South,169,1.0,6.0,69,0.00,,,0.00,19,weatherlink.com 1.10,2013-01-03 21:20:00,
2013-01-03 16:35:00,26.1,18.0,29.98,SSE,168,0.0,2.0,70,0.00,,,0.00,14,weatherlink.com 1.10,2013-01-03 21:35:00,
2013-01-03 16:50:00,25.8,18.0,29.98,SSE,160,0.0,3.0,71,0.00,,,0.00,11,weatherlink.com 1.10,2013-01-03 21:50:00,
2013-01-03 17:05:00,25.2,17.0,29.98,SSE,160,0.0,1.0,72,0.00,,,0.00,7,weatherlink.com 1.10,2013-01-03 22:05:00,
2013-01-03 17:20:00,24.5,17.0,29.99,SSE,160,0.0,2.0,73,0.00,,,0.00,0,weatherlink.com 1.10,2013-01-03 22:20:00,
2013-01-03 17:35:00,24.1,17.0,29.98,SE,138,0.0,3.0,74,0.00,,,0.00,0,weatherlink.com 1.10,2013-01-03 22:35:00,
2013-01-03 17:50:00,23.7,17.0,29.98,South,187,0.0,2.0,75,0.00,,,0.00,0,weatherlink.com 1.10,2013-01-03 22:50:00,
2013-01-03 18:05:00,23.1,17.0,29.98,SSW,201,1.0,3.0,76,0.00,,,0.00,0,weatherlink.com 1.10,2013-01-03 23:05:00,
2013-01-03 18:20:00,22.4,16.0,29.98,SW,216,1.0,5.0,77,0.00,,,0.00,0,weatherlink.com 1.10,2013-01-03 23:20:00,
2013-01-03 18:35:00,22.1,16.0,29.97,SSW,213,0.0,3.0,77,0.00,,,0.00,0,weatherlink.com 1.10,2013-01-03 23:35:00,
2013-01-03 18:50:00,22.0,16.0,29.96,SSW,207,0.0,2.0,77,0.00,,,0.00,0,weatherlink.com 1.10,2013-01-03 23:50:00,
2013-01-03 19:05:00,21.8,16.0,29.96,SSW,207,1.0,5.0,77,0.00,,,0.00,0,weatherlink.com 1.10,2013-01-04 00:05:00,
2013-01-03 19:20:00,21.8,16.0,29.94,SSE,168,2.0,5.0,77,0.00,,,0.00,0,weatherlink.com 1.10,2013-01-04 00:20:00,
2013-01-03 19:35:00,22.3,16.0,29.94,SSW,211,3.0,7.0,76,0.00,,,0.00,0,weatherlink.com 1.10,2013-01-04 00:35:00,
2013-01-03 19:50:00,22.4,16.0,29.93,South,186,2.0,8.0,76,0.00,,,0.00,0,weatherlink.com 1.10,2013-01-04 00:50:00,
2013-01-03 20:05:00,22.0,16.0,29.92,South,182,2.0,6.0,77,0.00,,,0.00,0,weatherlink.com 1.10,2013-01-04 01:05:00,
2013-01-03 20:20:00,22.1,16.0,29.91,SSW,202,2.0,8.0,77,0.00,,,0.00,0,weatherlink.com 1.10,2013-01-04 01:20:00,
2013-01-03 20:35:00,22.5,16.0,29.89,SSE,152,3.0,18.0,77,0.00,,,0.00,0,weatherlink.com 1.10,2013-01-04 01:35:00,
2013-01-03 20:50:00,22.5,16.0,29.89,SSW,195,3.0,15.0,76,0.00,,,0.00,0,weatherlink.com 1.10,2013-01-04 01:50:00,
2013-01-03 21:05:00,22.6,16.0,29.90,SSW,208,3.0,7.0,76,0.00,,,0.00,0,weatherlink.com 1.10,2013-01-04 02:05:00,
2013-01-03 21:20:00,22.8,16.0,29.88,South,191,1.0,13.0,76,0.00,,,0.00,0,weatherlink.com 1.10,2013-01-04 02:20:00,
2013-01-03 21:35:00,23.0,17.0,29.85,SSE,165,7.0,14.0,76,0.00,,,0.00,0,weatherlink.com 1.10,2013-01-04 02:35:00,
2013-01-03 21:50:00,23.1,16.0,29.84,WSW,254,6.0,15.0,75,0.00,,,0.00,0,weatherlink.com 1.10,2013-01-04 02:50:00,
2013-01-03 22:05:00,23.2,16.0,29.83,SSW,197,6.0,12.0,75,0.00,,,0.00,0,weatherlink.com 1.10,2013-01-04 03:05:00,
2013-01-03 22:21:00,23.4,16.0,29.81,South,173,4.0,14.0,74,0.00,,,0.00,0,weatherlink.com 1.10,2013-01-04 03:21:00,
2013-01-03 22:36:00,23.7,16.0,29.80,South,178,3.0,12.0,73,0.00,,,0.00,0,weatherlink.com 1.10,2013-01-04 03:36:00,
2013-01-03 22:51:00,23.9,16.0,29.80,SW,229,4.0,13.0,72,0.00,,,0.00,0,weatherlink.com 1.10,2013-01-04 03:51:00,
2013-01-03 23:21:00,24.2,16.0,29.75,SSE,155,3.0,18.0,71,0.00,,,0.00,0,weatherlink.com 1.10,2013-01-04 04:21:00,
2013-01-03 23:36:00,24.3,16.0,29.74,South,175,2.0,14.0,71,0.00,,,0.00,0,weatherlink.com 1.10,2013-01-04 04:36:00,
2013-01-03 23:51:00,24.5,16.0,29.72,SSW,202,7.0,16.0,71,0.00,,,0.00,0,weatherlink.com 1.10,2013-01-04 04:51:00,